Tracking 30166 objects as of 22-Jan-2025
HD Live streaming from Space Station
objects crossing your sky now

STARLINK-32508

Track STARLINK-32508 now!
10-day predictions
STARLINK-32508 is classified as:


NORAD ID: 62158
Int'l Code: 2024-224V
Perigee: 475.9 km
Apogee: 477.7 km
Inclination: 43.0 °
Period: 94.0 minutes
Semi major axis: 6847 km
RCS: Unknown
Launch date: November 30, 2024
Source: (USA)
Launch site: AIR FORCE EASTERN TEST RANGE (AFETR)
Your satellite tracking list
Your tracking list is empty




NASA's NSSDC Master Catalog

Two Line Element Set (TLE):
1 62158U 24224V   25022.16912911  .00004465  00000-0  14980-3 0  9991
2 62158  43.0001 329.9055 0001314 272.5885  87.4818 15.32075110  9450
Source of the keplerian elements: AFSPC